Theta_e
346 346 345 344 344 343 342 341 340 342 342 341 338 337 338 341 340 341 343 345 347 347 348 349 349 349 349 351 352 351 351 352 355 355 353 353 352 352 350 350 350 350 349 349 352 351 351 349 349 349 348 348 349 349 348 346 347 346 346 344 343 340 340 337 335 338 340 339 341 343 346 348 349 343 347 351 352 353 355 354 355 355 356 356 356
345 345 345 344 343 343 343 341 341 341 342 342 340 338 337 339 339 340 340 343 346 347 347 349 349 349 348 349 350 351 351 351 353 355 354 353 353 354 353 351 351 350 348 349 349 352 351 348 349 349 347 348 348 349 348 347 346 346 345 346 343 344 343 341 339 335 340 339 340 342 343 347 347 343 346 350 351 353 354 355 358 357 358 357 357
345 346 345 344 343 344 343 342 340 340 340 341 341 340 338 338 339 338 339 341 345 347 347 347 348 348 348 348 349 350 350 351 352 353 354 353 353 353 354 352 351 351 350 350 350 349 349 350 350 349 349 347 348 348 348 347 346 345 346 345 345 345 344 345 341 338 339 341 338 339 338 342 344 349 348 348 351 352 352 355 357 358 358 357 357
345 346 345 344 344 343 343 343 341 340 339 340 341 341 341 339 340 338 338 339 341 345 346 346 346 346 347 347 348 349 349 350 351 352 353 353 353 353 353 353 352 352 352 352 351 350 350 349 350 350 348 348 348 348 347 347 347 346 344 343 343 346 345 345 345 344 338 340 340 341 341 341 343 344 348 351 351 353 353 354 355 355 356 357 357
344 345 346 345 344 343 342 343 341 340 339 340 340 341 341 341 340 339 338 337 338 340 344 345 344 343 344 345 346 347 349 350 350 351 353 354 354 353 353 353 352 352 352 352 356 351 350 350 350 350 348 349 349 348 349 346 348 346 346 345 344 346 346 345 346 344 343 343 342 338 337 339 342 344 345 349 350 349 349 350 353 353 354 355 356
344 345 345 345 344 343 342 342 342 341 340 340 339 340 340 341 341 341 341 338 338 338 338 341 344 343 343 343 344 346 348 349 350 351 352 353 354 354 354 353 353 352 352 352 352 352 351 351 351 350 349 349 349 349 348 347 347 347 346 346 345 344 343 344 343 343 343 344 343 343 339 345 344 343 344 346 348 349 350 351 350 349 347 352 355
345 344 345 345 345 344 343 342 342 342 342 341 340 340 339 339 339 339 341 341 339 338 338 338 341 342 343 344 344 344 345 348 350 350 351 352 353 353 353 353 353 353 353 353 353 352 352 352 351 351 350 350 349 349 348 347 348 347 348 347 347 343 345 345 344 342 342 342 342 342 344 343 343 345 343 343 345 346 346 345 346 343 345 348 352
344 344 344 344 344 344 344 343 343 342 342 342 341 340 339 339 338 338 339 339 341 341 340 340 340 341 341 343 344 345 345 346 348 350 351 351 351 352 353 353 353 353 353 353 353 353 353 353 353 353 352 351 351 351 349 349 347 347 348 347 347 345 345 345 343 342 342 342 342 343 338 340 341 340 342 343 345 341 341 341 345 346 346 345 349
345 344 344 343 344 345 345 345 344 343 343 342 341 340 340 339 338 338 337 337 339 340 341 342 341 341 341 341 342 345 346 346 347 348 349 350 351 351 352 353 353 352 352 353 352 352 352 353 354 354 355 360 358 357 356 356 350 348 348 346 346 345 345 344 344 341 342 341 343 342 342 343 343 342 344 339 340 343 342 340 342 345 344 346 349
346 345 344 343 344 344 345 345 344 343 342 341 341 341 340 339 338 337 336 336 335 336 336 339 340 341 342 342 341 342 344 346 346 338 341 350 350 351 351 352 352 352 352 351 351 352 352 352 354 361 362 364 357 349 347 349 354 354 351 348 347 346 345 344 343 343 343 342 342 342 341 342 343 341 341 339 340 339 340 339 339 342 343 345 346
346 346 345 345 345 344 344 344 344 343 342 342 341 341 341 340 339 338 337 336 335 335 336 334 335 337 339 341 342 343 343 344 337 332 333 337 348 350 350 350 351 351 351 351 350 351 352 352 352 357 361 365 361 352 346 344 344 346 349 356 357 350 346 344 344 343 341 342 343 341 341 343 344 343 342 345 340 341 341 337 340 339 337 337 341
347 347 347 347 346 345 344 344 344 343 343 342 341 341 341 340 339 339 337 336 336 336 335 335 335 335 336 338 339 341 343 339 331 330 331 331 338 351 350 350 351 350 351 351 351 351 350 351 352 353 353 353 354 356 353 348 341 341 341 342 345 349 351 350 348 345 341 343 343 344 343 344 345 343 343 337 340 337 338 337 337 338 338 337 335
348 347 348 348 347 347 346 345 344 344 343 343 342 342 341 340 339 339 338 338 337 336 335 335 335 336 336 336 337 340 341 335 330 328 329 330 330 341 350 350 349 350 350 351 351 350 350 350 350 351 352 360 360 356 354 354 346 338 338 340 342 341 337 337 341 350 348 345 344 345 344 344 343 344 341 339 336 338 337 336 336 338 340 340 341
348 348 349 349 349 348 348 347 346 346 346 345 344 342 341 340 340 340 340 339 338 337 337 336 336 336 337 337 338 339 341 335 328 327 327 327 329 333 348 349 350 350 350 350 351 350 350 349 349 349 350 351 351 352 353 352 352 351 349 348 348 350 345 338 337 339 343 348 347 346 348 345 346 346 347 341 340 342 340 340 338 338 340 342 345
348 350 350 350 350 350 349 349 348 348 347 347 346 344 343 342 341 341 340 339 338 337 337 337 337 338 338 339 339 339 342 333 327 324 324 324 327 330 345 349 350 349 349 350 350 351 351 351 350 349 349 349 350 352 350 350 350 350 349 349 349 349 349 349 348 346 346 346 348 350 351 350 348 348 348 345 346 346 345 345 344 343 345 346 346
346 347 350 352 352 352 352 351 350 350 349 349 348 346 345 344 343 343 342 341 341 340 339 339 339 339 340 340 340 340 342 330 326 324 323 322 325 336 343 347 348 349 349 349 349 350 351 350 350 350 350 349 352 342 349 352 349 348 347 347 347 347 348 351 340 343 350 349 349 350 352 353 346 350 351 349 346 345 349 348 345 343 342 340 344
342 345 348 349 352 354 354 353 352 352 351 350 349 349 348 347 346 346 344 343 341 341 340 340 341 341 341 342 341 342 343 335 325 322 321 321 325 338 342 345 347 348 349 349 349 350 350 351 350 350 350 350 346 335 334 351 349 348 347 347 347 347 348 350 340 332 332 331 332 335 335 334 333 331 330 330 340 343 343 341 344 344 341 338 339
337 342 346 347 348 350 353 355 354 354 353 352 351 351 351 350 349 349 346 345 343 343 342 342 342 343 342 343 344 343 343 338 324 321 320 320 328 339 342 344 345 347 348 349 350 350 351 359 359 351 350 350 338 332 331 341 346 347 347 346 346 345 347 349 350 348 330 327 328 330 331 332 332 331 331 329 329 341 345 343 346 341 342 339 339
333 335 338 341 346 349 349 351 353 355 354 354 353 352 352 351 351 351 349 348 347 346 346 344 344 344 344 345 344 344 345 340 324 321 319 318 327 341 344 344 344 346 347 348 349 350 350 355 356 353 349 346 333 330 328 336 345 346 346 346 344 344 346 347 346 347 346 345 347 343 343 342 342 342 344 338 336 342 344 347 347 344 343 342 341
331 333 334 336 340 344 349 350 350 352 354 355 355 354 354 353 352 351 350 350 348 348 347 346 345 345 346 347 347 346 346 347 340 320 318 316 320 342 345 345 344 345 347 347 348 348 350 350 348 333 330 330 328 325 324 325 343 346 346 345 344 344 348 346 347 348 348 350 351 350 349 349 347 346 345 345 345 344 341 344 346 347 345 344 343
330 331 333 335 336 340 345 348 349 350 352 354 356 356 355 353 353 352 351 350 349 348 347 347 346 346 347 348 348 348 349 348 345 320 316 315 316 326 345 346 347 347 347 347 348 348 348 350 351 339 326 323 322 321 318 318 328 346 347 346 347 347 348 346 348 361 352 350 349 349 348 346 347 346 345 345 344 345 343 342 345 347 346 345 343
330 331 332 333 335 337 341 347 350 351 351 353 354 355 355 355 354 353 352 351 349 348 348 347 347 347 347 348 349 349 349 342 350 324 317 314 314 316 341 347 348 348 347 347 348 348 349 350 351 342 328 323 320 318 315 317 319 338 346 331 332 333 344 348 347 347 349 349 347 346 347 346 348 348 348 348 348 347 348 347 344 346 347 348 347
330 331 332 334 335 338 341 346 350 352 351 352 352 353 355 354 354 353 352 350 349 348 348 347 347 346 347 348 349 350 350 349 334 341 318 314 313 313 322 337 333 349 349 347 348 349 350 351 353 347 327 321 317 316 315 316 320 329 324 324 326 329 342 345 347 347 346 346 345 345 345 345 345 345 346 346 348 345 342 346 348 348 347 347 348
331 332 334 335 337 339 342 347 352 355 353 352 352 352 353 354 354 353 352 351 349 348 348 347 347 346 346 346 348 349 350 351 337 329 331 314 314 312 314 320 328 343 350 349 350 351 350 351 348 332 323 316 314 316 317 318 328 318 317 321 325 333 340 343 344 346 346 344 344 345 345 345 345 344 345 346 348 341 340 341 341 341 341 342 343
333 335 335 336 339 342 346 351 355 357 356 353 352 352 353 353 352 352 352 351 350 348 348 347 346 346 346 346 347 348 350 350 351 336 325 319 314 313 313 316 319 323 343 350 351 352 339 331 329 324 322 318 316 317 316 316 315 318 317 319 333 338 340 343 345 345 345 345 345 346 346 346 347 348 349 347 342 340 341 340 339 338 338 339 340
333 336 339 341 342 346 349 350 351 353 355 355 354 354 353 353 352 352 351 351 350 349 348 347 346 346 346 346 346 348 349 349 350 349 333 327 320 314 315 315 319 320 329 345 339 335 331 325 323 323 322 324 331 333 336 335 320 319 321 327 332 336 339 340 342 343 344 345 345 346 347 347 346 347 345 343 339 338 336 336 336 334 335 336 336
332 333 335 339 345 348 347 347 348 351 353 355 355 355 354 354 353 351 351 351 350 349 348 347 347 346 346 346 347 347 348 348 349 350 346 340 336 329 320 321 318 320 326 335 334 339 337 334 335 328 331 330 333 335 334 336 334 331 330 333 334 335 338 340 342 343 343 345 345 346 348 348 345 342 343 343 341 337 336 336 334 333 335 335 333
329 330 332 335 340 345 347 347 347 348 351 353 353 353 354 354 353 352 351 351 350 349 349 348 347 347 346 346 346 347 346 348 349 349 349 345 341 337 331 331 330 328 329 332 336 341 343 339 334 339 338 338 336 338 338 339 340 338 336 335 336 337 340 345 348 344 345 347 348 348 345 343 343 345 343 342 341 338 337 336 334 334 334 333 329
329 329 330 333 338 344 346 346 347 348 350 352 354 354 353 353 353 353 354 355 354 352 351 350 350 350 349 348 346 345 346 346 348 334 348 332 341 342 336 334 334 332 329 325 338 337 337 340 341 340 339 339 338 338 338 338 337 338 338 337 337 337 338 340 341 343 345 345 345 346 346 345 344 343 342 340 339 337 336 335 335 333 333 331 329
327 328 330 333 337 342 345 346 346 347 349 351 352 352 347 336 343 354 353 343 336 333 333 349 352 352 350 350 350 348 347 349 333 324 322 320 320 323 324 321 320 330 326 319 330 336 337 338 340 341 341 341 341 340 340 339 338 337 338 333 337 339 339 339 341 343 344 344 345 345 345 344 344 342 341 339 336 335 333 331 332 333 330 329 327
327 328 330 332 335 341 344 344 345 345 348 350 351 351 350 344 320 320 327 335 328 320 317 322 326 332 347 350 345 331 331 327 324 316 316 315 313 314 314 313 312 314 315 324 332 335 337 337 339 340 341 342 342 342 341 340 339 339 339 338 338 338 337 339 341 341 341 343 343 344 344 344 343 342 341 339 336 335 333 332 332 331 330 329 326
326 327 329 332 335 340 344 344 343 343 346 350 351 351 350 348 345 320 312 319 322 316 314 314 315 317 322 332 342 347 327 316 316 311 312 311 311 310 309 309 309 310 310 318 335 335 337 339 339 341 342 342 342 342 342 341 340 340 339 336 337 338 338 339 339 342 342 343 343 342 343 343 343 341 341 338 335 334 332 330 330 330 330 329 328
327 329 331 333 338 342 344 343 341 342 345 348 349 351 350 348 347 345 334 310 310 314 313 312 311 312 313 314 318 324 326 321 312 309 307 309 308 308 308 307 307 306 308 325 337 337 337 338 340 341 342 342 343 343 343 343 341 340 338 337 338 338 337 337 337 341 341 343 343 343 343 343 341 339 336 335 334 333 330 329 330 330 329 327 327
330 332 334 337 341 342 342 341 340 340 342 347 350 351 351 350 349 348 344 340 337 325 314 308 307 308 308 310 312 313 313 316 312 310 307 307 307 307 307 313 304 302 316 335 335 338 339 339 339 341 342 342 343 342 341 342 342 340 338 338 339 339 338 338 337 336 337 338 339 342 340 341 338 338 336 335 334 333 329 328 329 328 327 327 327
335 340 342 343 341 342 343 341 339 339 340 343 346 349 350 350 349 348 347 344 344 345 346 340 314 306 324 315 308 305 305 307 307 307 308 307 306 303 306 322 323 320 318 327 335 338 339 339 339 340 342 342 342 342 341 341 342 340 339 338 338 338 338 336 336 336 336 337 338 340 339 338 338 335 335 333 331 329 328 328 328 329 327 325 324
332 333 335 336 335 337 340 341 339 337 338 341 343 346 348 348 347 348 346 347 346 346 345 345 338 318 308 309 311 309 306 304 305 303 304 303 302 308 330 332 333 331 328 328 332 335 337 339 340 340 342 342 342 341 341 340 341 341 341 340 338 338 338 337 335 335 336 338 338 338 335 337 338 334 334 333 331 330 329 328 328 328 327 324 322
329 329 331 331 331 330 331 335 339 338 335 336 338 342 343 344 345 346 346 346 346 346 347 338 328 329 324 324 313 306 306 306 304 304 302 301 301 323 340 338 337 336 332 331 330 333 335 337 339 340 341 341 341 341 340 340 340 341 334 340 340 340 340 339 338 336 336 336 338 338 337 337 335 333 332 330 329 329 329 329 328 327 325 324 321
327 327 327 328 328 329 329 332 337 336 336 335 337 340 341 341 342 342 343 343 344 344 343 338 335 339 340 338 329 327 311 301 302 301 300 299 306 324 335 339 339 339 336 333 332 333 335 338 339 339 339 339 339 340 340 340 340 340 340 339 339 339 333 337 334 336 336 337 337 337 335 335 333 331 329 330 328 326 326 327 326 324 322 322 319
326 323 322 322 324 326 328 330 334 338 338 336 336 337 338 339 340 340 340 342 341 341 340 338 337 338 340 333 323 322 324 327 329 332 322 320 323 327 332 337 338 338 336 334 332 333 335 336 336 338 337 337 338 340 341 341 340 339 337 335 336 338 338 338 337 336 335 335 334 334 333 332 330 329 328 328 327 326 325 325 325 324 322 320 319
324 323 323 322 323 324 326 330 333 337 339 338 336 337 338 338 339 340 340 340 340 340 340 339 337 338 337 331 328 328 335 337 336 338 333 326 326 329 332 335 337 337 335 334 333 334 334 335 336 336 337 337 338 339 340 340 340 340 339 338 336 336 337 337 336 335 335 333 331 330 330 329 329 328 327 327 326 325 324 323 323 323 323 322 320
322 322 323 321 321 322 325 327 327 329 334 338 338 338 337 338 339 339 340 340 340 339 339 340 340 340 334 327 317 319 338 340 340 339 337 333 331 331 333 336 336 336 334 333 333 333 334 335 335 336 335 336 337 337 337 338 338 337 337 335 335 334 334 335 335 334 333 329 328 328 328 328 326 326 325 324 322 322 323 322 322 321 320 319 319
320 319 320 320 320 321 321 322 323 326 326 329 335 338 338 338 338 339 339 339 338 338 339 339 339 331 318 311 308 308 331 334 328 331 332 331 332 331 330 327 326 329 329 329 329 329 329 330 330 330 331 332 333 334 334 335 335 335 334 332 332 330 330 330 330 330 329 327 325 325 325 325 324 324 323 320 323 322 321 320 320 319 318 318 317
319 320 319 319 319 318 319 319 321 321 322 324 325 331 336 338 338 337 337 337 337 337 337 336 326 320 318 309 311 307 324 325 327 325 324 321 319 317 315 315 314 313 312 312 313 315 316 315 312 311 311 310 312 316 321 323 324 325 325 325 326 326 327 326 325 325 325 324 323 322 322 321 321 321 321 321 321 321 321 320 319 319 318 319 318
316 316 316 316 316 316 317 317 317 318 318 320 322 323 325 332 337 337 337 336 336 334 333 329 324 322 319 315 314 320 324 322 321 318 316 314 312 310 309 308 308 308 307 307 307 308 308 307 306 306 305 306 307 308 308 310 314 318 319 320 320 320 320 318 319 320 321 321 320 320 320 319 319 320 320 320 321 320 319 319 318 318 318 317 316
314 313 313 312 313 312 313 314 315 315 316 316 316 317 319 319 324 333 333 334 333 331 328 324 323 322 322 323 323 320 318 317 315 312 309 307 306 305 304 304 303 303 303 303 303 304 304 304 303 303 302 301 302 302 301 302 302 302 306 311 314 314 313 313 314 315 317 319 319 319 319 318 318 318 318 318 318 317 316 315 315 315 312 312 312
312 311 311 310 310 310 311 310 313 311 312 313 313 313 314 315 316 320 324 324 323 321 320 320 320 320 319 317 316 314 311 308 307 306 305 303 302 301 301 301 301 301 301 301 301 301 300 301 300 300 299 299 299 299 299 300 300 300 300 300 301 302 303 305 308 312 316 318 318 318 317 317 317 317 318 315 314 313 312 312 312 312 311 310 310
310 310 309 309 308 308 309 308 309 309 309 310 310 311 311 312 313 314 315 316 316 316 314 314 313 313 313 312 310 308 308 306 304 303 301 301 300 299 299 299 299 299 299 299 300 300 299 300 300 300 300 299 299 299 298 299 299 299 300 299 300 301 302 304 306 309 312 314 317 318 317 316 315 315 314 312 311 310 310 309 309 308 308 307 307
308 309 308 308 307 306 306 306 306 308 307 307 308 308 309 309 310 311 311 311 311 311 311 310 309 309 308 307 307 305 304 303 302 301 300 300 299 299 299 299 299 298 298 298 298 299 299 298 298 299 299 299 300 299 298 298 298 299 299 300 301 301 302 304 307 308 309 310 311 311 311 310 309 309 309 308 307 306 305 305 306 306 306 306 305
307 307 307 306 306 305 305 305 306 305 305 305 305 305 307 306 307 307 308 309 309 309 308 307 306 306 305 304 304 303 302 302 300 299 299 298 298 298 298 299 299 298 298 297 298 298 298 299 299 299 298 298 298 298 298 299 298 298 299 299 300 300 297 299 302 304 302 305 305 305 304 304 304 305 306 306 305 304 303 303 303 303 303 303 303
306 306 306 306 305 305 305 305 304 304 305 304 304 304 304 304 304 305 305 306 306 306 306 306 305 304 303 303 303 301 300 299 298 298 298 298 298 298 298 298 297 297 297 297 297 297 298 298 298 298 298 298 298 298 298 298 298 298 298 298 296 295 296 298 299 302 304 304 304 304 304 303 303 303 304 303 304 303 303 302 303 302 301 301 301
305 305 305 305 304 304 304 303 303 303 303 303 303 302 302 302 302 303 303 303 303 304 304 303 303 303 302 302 302 301 300 299 299 299 298 298 298 297 297 296 296 295 295 296 296 296 297 297 297 298 298 298 297 296 296 296 296 296 295 293 292 292 294 296 298 294 297 300 304 304 303 303 302 301 301 302 303 304 304 303 301 300 300 300 300
Wind_Speed
15 14 13 13 13 13 13 12 12 10 9 9 10 11 10 9 9 10 7 7 7 7 7 8 8 8 7 7 7 7 7 7 6 5 5 5 5 4 3 4 4 4 3 4 3 3 4 5 6 5 3 3 4 3 2 3 2 3 3 3 3 2 3 3 3 7 5 3 4 4 3 3 4 1 5 6 6 6 5 4 5 5 6 5 6
15 14 13 13 14 13 13 12 12 10 10 10 10 10 10 10 9 7 8 9 8 9 9 8 7 8 8 8 8 8 7 7 7 6 6 6 6 5 5 5 5 5 4 5 5 5 4 4 6 6 3 3 4 4 3 3 2 3 3 4 3 4 3 3 4 2 8 3 4 3 4 1 3 1 3 6 7 7 8 8 7 5 6 6 6
15 14 13 13 14 13 12 12 12 12 12 10 11 10 10 10 8 9 9 8 8 9 9 9 8 8 8 8 8 7 8 7 7 7 7 7 8 6 6 6 6 6 6 7 6 4 4 5 6 5 3 3 4 4 3 4 3 3 4 2 3 3 3 4 3 4 6 8 2 3 2 1 2 5 4 3 4 4 6 7 6 7 6 5 5
14 14 13 14 13 13 12 12 13 13 13 12 12 11 10 9 8 9 10 8 9 8 8 9 8 8 9 8 7 7 7 7 7 7 9 9 8 8 7 6 6 7 7 7 6 5 6 5 7 5 4 4 4 4 4 3 4 3 4 3 3 4 3 3 4 5 3 6 4 3 3 3 4 3 4 4 4 6 4 5 5 5 6 6 4
14 14 14 14 14 14 14 13 13 14 15 13 14 12 11 9 8 9 9 9 9 8 8 7 8 8 9 9 9 8 8 8 8 8 8 8 9 8 7 7 7 7 7 7 6 6 6 7 7 5 4 5 6 5 4 4 4 3 4 4 4 4 3 3 4 3 5 7 6 3 2 2 3 3 2 4 5 4 4 4 5 5 6 5 4
14 14 14 15 14 15 15 14 15 15 15 14 15 14 12 10 9 8 9 10 9 8 8 7 8 9 9 9 9 9 8 8 9 9 9 8 7 7 7 6 7 7 7 7 7 6 7 7 7 5 5 6 7 6 4 5 4 4 4 5 4 3 3 4 3 3 4 6 5 7 3 4 4 3 2 1 4 5 6 5 4 3 3 6 5
14 14 14 15 14 15 15 15 15 14 14 14 12 12 12 12 11 11 9 10 10 9 9 8 8 8 9 9 9 9 9 8 8 9 9 8 8 8 7 7 7 7 6 7 6 6 7 7 7 6 6 7 7 7 6 5 5 5 5 5 4 3 4 5 4 4 4 5 5 4 6 3 2 5 2 1 3 2 3 6 5 1 1 4 7
14 14 14 14 15 15 15 14 14 14 13 12 12 13 12 12 12 11 9 10 11 10 10 10 9 8 9 9 9 8 8 8 8 8 8 8 8 8 8 8 8 7 7 7 7 7 7 7 7 7 7 7 8 7 5 6 4 5 5 4 4 4 5 5 4 4 5 4 5 7 3 4 4 2 2 3 4 4 1 0 6 7 5 2 3
13 14 13 14 15 14 13 12 12 12 13 12 13 13 13 12 11 11 10 10 9 10 10 9 9 9 8 8 8 8 8 9 8 8 9 9 8 9 9 9 9 9 8 8 7 7 7 7 7 8 8 11 12 10 9 7 5 6 6 4 4 4 5 5 5 5 5 5 7 4 5 7 6 5 6 3 3 5 4 2 4 6 5 5 5
13 13 14 14 13 12 12 11 11 12 12 13 13 13 12 12 11 11 11 11 10 9 9 9 10 10 10 10 9 8 8 8 10 15 13 10 9 9 9 9 9 8 8 8 7 7 8 7 8 12 13 14 13 13 13 12 11 8 7 5 6 5 5 5 6 5 5 6 7 6 7 8 7 4 3 3 3 2 4 3 4 6 5 5 3
14 14 15 14 13 12 11 12 11 12 13 13 12 12 13 12 11 12 11 11 11 10 10 11 11 11 11 10 10 10 9 9 14 15 16 17 12 9 10 9 9 9 9 8 9 9 8 8 7 9 10 11 11 14 13 14 13 13 13 11 8 7 6 6 6 5 5 6 6 4 6 8 8 4 4 5 2 3 4 3 4 3 2 3 7
15 15 15 14 13 13 13 13 13 13 13 14 14 13 12 12 12 12 11 12 11 10 11 12 12 11 10 11 11 11 10 13 15 16 16 17 15 11 9 9 8 9 9 9 9 8 8 7 7 6 6 8 8 7 9 12 13 14 14 14 13 12 10 7 7 6 4 6 7 7 5 7 8 5 5 3 4 3 3 3 3 3 3 2 2
15 14 14 14 13 13 12 13 14 14 14 14 13 12 12 12 13 12 14 12 10 10 13 12 12 12 11 12 12 12 11 14 15 17 17 18 19 15 9 9 9 9 9 10 9 9 8 7 7 6 6 11 9 7 7 7 9 13 13 13 12 12 12 12 11 8 5 5 7 8 7 5 6 6 3 2 2 3 3 3 2 3 3 4 4
12 13 13 13 13 13 13 13 14 14 13 12 11 11 12 13 14 13 12 10 12 13 12 13 12 12 12 13 12 11 11 13 16 17 18 19 19 16 11 10 10 10 10 10 9 9 8 8 8 7 7 7 6 7 6 7 7 5 5 5 6 9 11 12 14 14 11 8 7 10 10 5 9 8 5 3 2 4 4 6 3 3 4 6 4
4 9 12 13 13 13 14 14 15 14 13 13 12 13 14 13 13 13 12 13 13 13 13 13 12 12 12 12 11 12 12 16 16 18 18 19 19 15 11 10 9 9 9 9 9 9 9 9 9 9 9 8 8 8 7 8 6 6 6 6 6 7 6 6 7 7 7 8 10 11 12 8 9 9 6 3 5 5 5 6 5 4 4 4 3
3 3 7 11 12 13 14 15 15 14 14 13 14 14 14 14 15 13 12 12 12 11 11 12 13 14 13 13 12 13 13 17 17 18 19 18 18 11 10 10 10 10 9 9 9 9 9 9 9 10 10 10 12 14 12 8 6 6 7 7 7 6 7 9 10 9 8 8 9 10 10 10 9 8 7 5 4 4 4 3 1 1 2 4 6
6 3 3 4 8 11 13 14 14 14 13 13 14 15 14 14 13 10 11 12 12 13 13 13 12 12 13 12 14 14 13 15 18 19 18 19 13 9 9 9 10 10 11 10 9 9 9 10 9 9 10 10 13 14 14 11 7 8 8 8 8 6 9 8 9 12 13 13 14 15 16 15 13 12 12 10 6 4 3 2 7 4 4 5 4
8 7 4 3 5 5 6 10 12 13 12 14 15 15 14 12 12 11 13 13 13 13 12 12 12 13 14 14 15 14 14 15 18 18 19 18 16 11 9 9 10 10 10 10 9 9 10 15 13 11 11 11 14 15 14 10 8 9 9 9 8 9 10 9 5 6 11 13 14 15 14 14 13 12 12 12 10 6 6 8 6 4 6 5 5
8 9 9 8 7 5 6 7 8 10 12 14 14 14 13 13 12 11 12 12 13 12 11 12 12 12 13 15 17 17 14 14 17 18 19 18 16 10 10 9 10 10 10 10 9 9 9 11 16 15 12 13 16 14 13 11 8 9 9 8 9 10 12 8 5 6 5 4 6 6 7 10 10 8 9 13 11 9 8 9 5 5 6 6 5
8 8 9 9 8 7 6 7 9 9 10 11 11 12 11 10 11 12 12 12 12 11 11 12 13 13 12 13 13 15 15 13 13 19 19 19 20 13 9 9 10 12 11 10 9 9 10 9 11 15 17 17 16 15 13 14 10 9 7 7 8 13 11 6 6 7 7 7 7 6 7 6 5 5 5 4 3 6 8 8 7 6 7 7 5
8 8 8 9 10 9 7 7 8 10 11 10 10 10 10 11 12 12 12 11 11 11 13 13 13 13 12 12 13 13 13 14 13 19 19 20 21 18 10 12 12 11 11 10 10 10 9 9 9 12 16 17 17 16 13 13 13 9 8 9 11 13 8 5 8 9 7 7 7 6 6 5 5 5 5 4 4 5 6 7 7 7 7 7 6
8 7 8 9 10 10 9 8 8 8 10 11 11 11 11 12 12 12 11 11 13 14 13 12 12 12 11 12 12 13 14 17 13 16 20 21 21 23 13 13 14 12 11 10 10 10 10 9 9 12 16 16 16 16 14 13 14 9 10 14 16 15 10 7 6 5 6 6 6 5 6 5 6 6 6 6 5 5 6 6 7 8 8 7 7
8 8 8 8 9 10 10 10 9 7 8 11 12 13 11 12 12 12 12 12 13 14 13 12 12 12 11 11 11 12 12 12 18 14 18 21 22 22 23 17 18 14 12 12 12 12 10 10 10 13 15 16 16 16 14 15 11 11 17 16 16 14 8 6 7 7 6 6 5 6 6 6 6 7 7 7 6 5 5 6 6 6 6 5 4
9 8 8 8 8 9 9 10 9 8 9 10 12 13 12 12 12 11 12 12 12 13 11 11 11 11 12 11 11 11 11 11 13 19 16 21 21 23 24 23 20 15 13 12 11 11 10 10 10 14 15 16 16 15 15 13 11 16 16 16 12 7 5 6 6 7 6 6 6 7 7 6 6 6 6 7 7 5 3 2 1 2 3 3 2
9 8 7 8 8 8 8 9 9 9 9 9 11 12 12 12 11 11 11 12 12 12 12 11 12 12 12 12 11 10 10 11 10 14 19 19 22 23 23 24 23 21 15 12 11 11 12 15 15 15 15 14 15 14 11 10 13 12 14 12 8 4 6 6 7 6 6 7 8 8 7 7 8 8 7 5 1 2 2 2 2 3 3 4 4
9 8 9 8 9 8 8 8 9 10 11 10 11 11 12 12 12 11 11 12 12 12 12 11 12 12 12 12 11 10 10 9 11 9 11 15 17 21 23 23 24 23 21 16 18 19 17 14 15 13 11 10 8 7 8 8 12 12 9 6 5 7 7 7 7 7 9 9 8 9 10 7 7 7 4 2 3 5 5 5 5 3 4 5 5
9 8 8 9 9 8 8 8 8 9 10 10 10 10 11 11 12 11 12 12 13 13 12 11 11 11 12 12 10 10 10 10 10 10 9 10 10 12 13 14 18 17 12 12 12 10 9 8 7 8 8 11 11 8 6 5 5 6 6 7 7 8 8 8 9 9 9 9 9 9 8 7 2 2 4 5 6 5 6 7 6 5 5 5 6
9 8 9 8 8 8 8 10 11 9 10 9 10 10 10 11 12 13 13 13 13 13 12 12 12 12 12 11 11 10 11 11 11 12 11 10 10 10 11 11 11 11 12 12 12 12 9 5 5 4 5 4 5 4 5 5 6 6 7 8 8 8 9 9 8 7 8 8 8 6 5 4 5 7 5 5 6 6 6 6 7 7 6 7 6
11 10 8 8 8 8 8 8 9 9 9 10 11 11 11 12 13 14 15 14 15 15 14 14 14 14 14 13 12 12 12 13 14 13 13 14 14 11 10 11 10 9 14 16 10 5 4 6 7 5 6 7 6 6 6 6 6 7 8 8 8 8 7 6 8 9 9 8 9 9 9 6 6 5 5 5 5 6 6 6 6 8 7 7 10
11 10 8 8 9 8 7 8 9 10 11 10 10 10 14 18 17 15 14 20 23 24 19 16 15 14 14 13 13 14 15 16 19 19 19 19 20 21 18 17 17 15 16 16 10 7 8 9 10 10 9 8 8 8 8 8 8 8 9 10 9 8 8 8 9 9 9 9 8 7 7 7 7 6 6 6 5 5 7 8 7 8 9 9 7
9 9 9 8 9 9 8 9 9 10 11 10 9 10 9 10 11 12 13 12 19 22 21 22 21 19 15 12 12 19 19 16 12 15 18 18 18 18 17 17 18 17 13 10 6 9 9 10 10 9 9 9 9 9 9 9 9 9 9 9 9 10 10 10 11 10 9 8 8 8 8 8 8 6 7 7 8 7 6 5 6 8 8 8 7
9 9 8 9 10 10 8 9 10 11 11 10 10 10 10 10 10 3 2 6 11 17 19 20 19 17 18 16 12 10 14 15 13 15 16 17 17 18 17 18 18 18 18 20 11 10 10 10 10 10 10 10 10 8 9 9 9 9 8 9 11 12 10 9 8 9 9 8 9 8 7 7 7 7 8 8 8 8 8 7 7 8 8 7 7
10 9 8 9 9 10 10 9 9 10 11 10 9 9 10 10 11 11 5 5 3 10 18 19 19 18 18 18 19 17 15 14 16 15 16 18 18 18 18 18 18 17 15 10 11 10 10 11 11 10 9 10 8 8 8 9 9 9 10 11 12 12 9 7 7 7 7 7 6 6 7 8 8 7 7 8 8 8 8 8 7 7 8 7 4
12 10 9 9 9 8 8 8 9 10 10 10 9 10 11 11 12 12 10 7 4 5 6 10 15 17 16 17 17 18 14 14 16 17 17 16 17 17 16 9 8 15 18 14 12 12 11 11 11 10 8 9 8 9 8 8 9 11 12 12 12 11 8 8 7 7 7 6 6 6 6 7 6 6 5 6 7 7 8 8 7 7 7 8 8
9 11 14 10 6 7 8 7 8 9 9 9 9 9 11 11 10 10 10 11 12 13 13 10 8 12 15 13 14 13 12 11 12 15 17 16 15 13 14 9 6 1 4 7 9 11 11 11 11 10 10 10 10 10 11 12 12 12 12 12 12 11 7 6 8 8 8 8 7 6 6 6 6 7 8 7 6 7 7 7 8 9 8 7 6
8 7 6 7 7 7 8 8 8 8 8 9 8 9 9 9 10 10 11 11 11 12 10 8 6 4 6 6 3 4 5 7 7 7 8 11 15 19 10 8 8 9 10 11 12 12 11 11 10 10 10 10 9 10 10 11 11 11 10 10 10 10 9 7 8 7 6 6 7 7 7 7 7 7 6 6 9 9 9 10 9 7 7 8 6
7 5 4 5 6 7 9 10 8 8 8 7 7 7 7 7 7 7 9 10 12 11 10 5 3 2 1 2 4 5 6 7 9 10 11 12 17 15 11 12 12 11 11 11 10 10 10 10 10 8 9 9 9 9 9 9 10 10 8 9 9 10 10 8 5 5 6 6 7 8 8 8 7 7 8 8 8 9 10 10 8 8 8 7 6
7 5 4 5 5 5 6 9 9 9 9 7 7 7 7 7 7 7 8 10 11 10 9 7 7 8 10 8 8 6 6 8 12 9 6 7 7 9 10 11 11 12 12 10 11 11 11 11 10 10 10 8 8 9 10 11 10 11 11 9 7 8 10 8 5 5 6 7 8 8 8 7 7 8 8 9 10 9 8 8 8 8 6 7 6
5 7 8 8 6 5 5 7 8 7 7 7 7 7 7 7 7 7 8 9 9 8 7 6 8 9 9 6 6 6 9 5 7 10 9 9 10 11 11 11 10 10 8 10 10 10 10 10 9 8 7 7 9 10 11 11 10 9 8 7 10 10 10 9 6 5 6 7 6 5 6 6 6 6 7 7 8 8 8 8 8 8 8 8 8
5 5 6 8 5 6 5 5 7 7 7 7 7 8 8 8 9 10 9 9 10 9 8 9 9 10 7 8 8 9 10 10 11 11 10 11 11 10 9 10 10 10 9 8 9 10 9 9 8 8 8 8 10 10 10 10 11 12 11 10 10 11 11 9 8 9 8 7 5 5 7 7 7 7 6 7 8 7 8 8 8 8 8 8 8
4 4 5 5 6 6 5 4 4 5 6 6 7 8 9 9 9 9 9 10 10 10 10 10 11 9 8 11 15 16 12 11 9 8 9 10 9 9 9 10 9 8 7 7 7 7 9 8 7 7 6 7 8 9 9 9 9 8 9 11 11 10 10 10 9 8 7 7 7 7 6 6 7 7 7 6 5 6 6 7 7 7 6 6 6
4 4 4 5 6 6 5 5 5 5 5 6 6 7 8 9 8 8 9 10 10 10 10 9 7 3 6 13 15 17 9 0 1 4 3 2 2 2 0 1 2 1 2 2 2 4 5 5 5 5 6 6 7 7 7 8 7 7 8 9 8 8 8 8 7 6 6 6 6 5 5 5 6 5 6 6 6 5 5 5 5 6 6 6 5
5 5 5 6 7 7 7 7 6 6 6 6 6 6 7 9 9 8 8 8 7 7 7 7 3 3 4 7 11 10 4 2 4 5 6 7 8 8 8 8 7 7 7 6 6 5 5 6 6 7 6 6 6 4 1 1 3 4 4 5 5 4 5 6 7 8 7 7 7 7 7 7 7 6 6 6 6 6 6 6 6 6 5 5 5
5 6 6 7 7 7 7 7 6 6 6 7 7 6 7 7 8 8 8 8 8 6 6 5 5 5 5 4 5 5 3 6 6 7 9 10 10 11 10 9 8 8 8 8 7 7 8 8 8 7 8 8 7 7 7 6 6 3 3 5 6 5 5 5 6 5 6 6 7 8 8 7 7 7 6 6 7 7 6 6 7 6 6 6 6
5 6 7 7 7 8 8 7 7 7 8 7 7 7 7 7 8 7 6 7 8 6 4 3 4 5 6 5 5 6 7 7 9 11 12 11 11 9 8 9 9 10 9 10 9 9 9 9 10 11 10 9 9 8 9 9 9 9 9 7 5 7 6 7 7 5 4 6 6 7 7 8 8 7 7 7 7 8 7 6 7 6 7 6 6
5 6 7 8 8 8 8 8 8 7 7 7 7 7 8 8 9 9 5 2 2 4 6 6 6 5 5 7 8 10 10 11 10 9 10 9 10 10 9 9 10 10 10 10 10 11 10 10 10 10 11 9 9 8 8 8 9 9 10 10 9 8 8 8 7 6 5 4 6 6 7 7 7 7 8 7 6 7 7 6 6 6 6 6 6
6 7 7 7 8 8 8 8 8 8 8 8 8 8 8 9 9 8 8 7 7 7 9 9 9 9 9 9 9 10 9 10 9 10 10 10 11 10 10 10 11 11 11 11 12 11 11 11 11 11 10 9 9 9 9 8 8 8 9 9 9 9 9 7 7 7 6 4 5 7 7 7 7 7 8 7 7 7 7 7 6 7 6 5 5
6 7 8 8 8 8 8 8 9 10 8 9 8 9 8 9 9 9 7 6 8 8 8 9 9 9 11 10 10 10 10 11 11 10 9 9 8 8 9 10 11 12 12 12 12 12 12 12 11 10 9 9 10 10 9 9 9 9 8 8 6 6 8 8 7 7 7 7 8 8 8 8 8 7 7 7 6 6 7 6 6 6 7 6 6
7 7 7 8 8 8 7 8 8 8 8 8 8 10 9 10 11 9 8 7 8 8 7 10 10 10 11 11 10 11 10 10 11 11 10 10 9 9 8 8 10 11 12 13 12 12 12 12 13 10 8 8 10 10 9 9 10 9 9 7 9 14 16 15 10 10 10 9 8 9 9 9 9 8 7 7 7 7 7 6 6 6 5 5 5
7 7 7 8 8 7 7 7 7 8 8 9 10 10 9 10 11 11 11 9 8 8 9 10 10 10 11 11 12 11 11 11 11 10 10 10 9 9 9 9 10 11 12 12 12 12 12 12 12 12 9 9 10 10 9 8 8 8 8 10 14 16 16 16 15 14 11 8 9 9 9 9 9 8 7 7 7 7 7 6 6 6 6 6 6
7 8 9 8 7 6 7 8 9 9 9 9 9 10 9 10 11 12 12 11 10 9 9 10 11 11 11 11 11 11 11 11 11 10 10 10 10 10 10 10 11 12 11 12 12 12 13 12 12 12 12 12 11 10 9 8 7 9 12 16 16 15 16 14 12 13 14 9 8 8 9 9 9 8 7 6 6 7 7 7 6 6 6 5 5
Wind_Direction
194 196 193 198 196 195 195 194 199 201 207 210 211 212 206 202 201 203 191 200 194 194 198 199 197 198 195 197 201 203 208 214 215 213 213 221 218 212 205 200 216 233 231 248 249 244 241 247 257 256 253 275 274 282 252 222 202 221 209 190 193 165 160 171 218 272 290 240 254 269 309 331 312 271 313 309 316 319 320 319 330 330 324 329 321
197 195 196 198 199 196 196 195 197 197 204 209 215 214 209 204 202 192 192 203 191 198 201 202 200 197 197 201 203 205 206 210 209 205 213 220 224 211 212 208 220 234 225 239 237 235 239 245 258 260 241 239 268 273 269 269 220 227 227 197 218 216 204 177 230 237 284 312 302 296 293 244 273 287 298 315 318 333 333 329 331 338 328 331 327
195 194 195 197 200 199 196 197 194 197 202 208 216 218 215 211 198 193 200 200 197 199 200 200 198 195 200 201 202 206 207 208 206 205 215 216 220 219 210 207 214 224 229 236 234 229 241 245 252 254 241 241 251 255 265 264 252 238 247 219 231 239 210 208 214 262 276 284 262 306 278 312 241 294 309 296 299 305 311 316 326 324 322 320 317
195 195 197 199 197 196 199 199 197 199 202 206 212 217 218 216 204 205 206 199 197 204 201 198 194 194 200 202 200 205 206 208 206 210 215 215 219 221 213 208 212 217 225 233 233 222 230 244 254 248 246 246 254 254 251 246 248 241 244 242 226 248 233 206 218 231 267 282 292 247 287 312 294 287 282 298 301 310 306 303 314 317 315 317 316
195 195 196 197 197 199 200 198 201 203 205 205 210 212 216 218 212 215 213 212 206 200 204 196 196 196 202 205 204 204 207 205 207 214 219 218 220 221 217 213 213 217 220 226 227 224 228 230 245 249 244 249 263 262 259 259 250 244 249 245 229 244 252 220 234 222 252 271 286 273 276 291 263 298 303 319 323 318 317 312 309 310 306 301 306
195 195 195 197 199 201 200 200 203 205 207 208 209 208 209 213 215 217 217 220 217 211 204 199 200 205 208 210 208 209 207 205 207 213 217 219 222 224 223 220 220 220 222 222 224 220 227 234 239 233 236 237 249 253 252 249 251 247 253 258 248 245 255 260 234 231 233 259 269 302 322 297 325 296 300 0 325 319 317 310 319 323 336 330 327
194 195 197 199 201 202 202 204 203 205 207 210 212 210 209 209 210 216 215 221 222 220 215 209 210 208 213 213 214 211 210 207 209 212 216 215 217 219 223 223 226 225 225 225 224 222 227 234 234 222 226 231 241 245 241 243 238 245 240 248 253 244 258 263 250 243 243 266 282 250 280 280 247 298 311 336 285 251 283 317 321 287 325 329 323
195 198 197 201 203 204 205 203 203 205 206 207 211 215 214 210 209 210 207 215 222 224 221 217 216 212 216 217 219 215 212 211 210 213 214 213 213 219 219 223 227 229 232 229 224 224 227 233 235 227 220 226 230 240 226 236 231 246 245 238 248 241 253 259 263 253 261 264 265 286 282 292 316 276 302 351 338 334 356 263 306 317 328 303 270
199 200 202 204 205 205 204 203 204 203 204 206 210 213 215 216 213 209 206 211 215 221 223 222 220 220 221 219 221 219 218 217 212 209 211 212 212 216 218 220 223 229 233 234 229 227 230 232 236 236 229 228 225 230 229 220 216 234 247 222 235 231 245 251 250 258 262 261 280 278 287 296 285 309 320 318 311 286 292 14 303 301 305 323 302
198 202 207 208 207 205 204 204 203 202 204 208 211 212 214 215 214 215 215 212 212 212 217 220 222 221 221 222 220 220 221 220 217 212 208 209 209 215 216 220 222 226 231 235 237 231 232 232 238 240 237 238 235 233 237 234 227 222 234 216 224 225 234 243 249 244 248 262 264 272 290 283 283 278 266 253 261 294 313 305 299 298 321 316 284
196 202 206 207 205 203 203 205 202 204 207 209 209 210 213 212 214 217 218 217 216 214 213 218 222 223 222 221 221 223 224 222 216 210 211 211 209 212 214 218 218 221 224 228 234 234 235 234 239 246 248 247 247 240 234 235 235 238 243 238 222 212 230 240 249 240 240 252 262 265 258 276 281 267 252 271 245 249 262 264 262 305 354 9 328
199 201 205 203 201 201 202 202 204 207 206 208 208 209 209 210 214 216 217 219 219 217 220 221 222 223 224 225 225 225 227 224 214 210 210 211 211 212 213 218 218 218 221 225 231 234 236 237 238 238 239 241 242 252 247 240 236 238 242 247 248 244 235 225 241 254 230 247 262 255 255 262 277 286 277 250 262 256 253 242 239 259 278 270 232
197 201 203 201 202 201 201 202 206 209 210 210 208 206 206 210 213 214 217 218 216 219 224 223 224 223 224 226 228 227 230 222 213 210 209 210 210 211 215 214 216 218 218 220 225 229 231 235 243 238 243 241 242 244 245 251 239 234 243 252 259 252 251 255 252 246 243 236 249 264 241 251 270 267 215 224 171 269 296 281 244 226 230 249 245
195 200 197 199 199 198 199 203 207 210 210 209 207 207 208 213 213 213 215 212 214 220 221 222 224 223 223 225 229 230 229 226 211 209 210 210 209 205 218 214 216 220 220 219 222 224 225 227 231 243 240 239 239 238 239 242 248 248 244 238 245 257 251 239 243 248 244 241 244 255 259 196 248 257 245 167 197 265 273 278 264 259 259 248 244
244 202 199 200 197 197 199 201 206 208 206 205 204 206 209 213 213 212 211 211 213 217 218 221 223 224 225 223 227 230 231 223 212 208 210 209 209 201 214 216 218 222 222 221 220 222 223 221 223 232 238 236 231 226 229 235 239 243 248 251 245 250 251 248 235 231 229 226 235 243 256 244 241 251 253 202 216 226 219 236 245 238 261 287 285
299 272 224 204 200 199 199 202 206 206 205 204 205 209 210 210 211 210 210 214 216 216 217 218 220 221 221 220 222 229 231 220 211 208 208 208 203 198 209 215 218 222 224 223 221 222 222 220 221 226 233 236 236 228 226 226 226 240 247 252 255 251 249 238 234 231 226 223 226 238 247 250 244 249 251 237 220 219 233 258 286 235 270 292 285
339 308 280 268 231 211 203 204 206 206 204 204 208 211 211 212 214 206 211 215 215 214 216 215 219 220 220 218 221 227 231 221 210 208 207 205 191 201 204 212 219 222 227 224 222 222 222 221 219 225 230 234 236 227 224 219 228 235 242 250 253 258 262 259 228 228 233 234 236 241 249 256 257 257 263 257 226 198 172 244 261 198 203 253 270
335 335 320 268 254 257 236 218 210 207 204 207 210 212 212 212 211 202 209 211 215 217 216 219 217 217 217 219 218 223 229 222 207 208 206 199 187 196 200 204 216 220 228 229 225 225 225 222 219 223 229 234 233 226 220 202 219 231 239 246 254 259 263 258 245 230 220 230 239 245 251 256 255 254 254 256 240 194 191 231 237 157 215 213 243
334 332 329 330 317 269 233 230 226 214 209 212 211 211 209 209 207 203 210 212 217 216 216 220 220 219 219 220 218 220 228 224 206 206 204 196 190 199 197 201 213 220 222 229 226 226 230 229 227 227 227 235 235 228 214 192 213 224 230 236 246 253 254 257 245 255 246 246 252 244 257 250 248 243 249 248 239 208 211 229 227 194 231 232 235
316 309 308 306 302 298 285 243 227 223 220 219 214 212 210 208 205 205 209 210 214 213 216 218 220 221 219 219 221 219 224 226 207 202 201 196 190 194 197 197 212 219 220 222 228 227 228 233 229 228 231 237 240 232 216 194 207 224 222 226 239 250 256 254 241 235 249 236 248 232 239 246 245 240 241 245 217 198 213 224 222 208 216 231 224
308 305 299 296 295 291 285 273 245 230 224 220 212 212 208 209 207 207 208 210 212 214 216 217 220 223 219 219 222 220 221 223 214 195 200 194 193 192 199 204 210 215 218 220 223 227 227 227 231 222 220 229 237 238 222 203 210 220 219 224 228 242 255 248 252 238 237 240 242 241 242 245 239 238 243 247 230 207 211 217 216 210 205 215 224
302 301 294 291 290 286 280 271 264 245 232 223 216 214 210 207 206 207 208 207 210 214 215 216 219 222 221 219 221 224 221 217 218 197 196 195 193 194 200 209 206 211 217 223 222 227 228 224 226 223 218 222 229 234 226 208 211 215 229 228 237 244 249 244 255 251 244 242 241 241 241 238 239 236 237 238 233 220 215 214 212 212 212 212 204
293 285 281 279 280 278 274 267 258 256 239 226 222 220 209 206 206 205 206 207 210 213 214 215 217 221 221 221 221 222 221 219 214 207 196 195 194 196 204 208 206 208 214 221 221 226 224 224 225 221 215 218 223 227 224 214 202 217 228 235 238 243 249 254 248 247 244 240 233 237 233 227 228 235 235 239 242 228 222 221 213 207 211 215 223
287 274 264 262 267 263 265 266 262 254 244 231 225 221 212 207 206 204 204 206 209 212 215 213 216 220 221 222 221 221 218 221 211 210 198 194 196 197 204 212 206 208 212 222 223 223 222 221 222 219 213 214 217 220 222 208 207 217 224 234 244 249 243 250 248 240 240 238 235 237 235 223 224 236 235 230 235 222 224 243 198 164 148 142 139
283 282 269 269 270 263 257 254 253 254 255 238 225 220 214 205 206 205 203 207 209 212 214 209 212 217 219 221 221 219 217 217 221 208 204 193 197 199 204 208 215 212 213 223 225 224 221 216 216 214 215 213 213 217 222 215 214 218 218 217 209 209 221 229 236 234 236 236 235 237 238 224 218 224 226 226 191 96 97 71 63 71 75 79 66
291 292 289 278 268 263 264 266 260 256 250 241 228 217 211 204 204 202 202 205 208 213 213 209 214 215 218 221 220 218 214 217 222 211 199 201 200 203 203 206 213 214 214 220 219 222 219 214 213 215 213 210 204 205 211 211 211 218 227 210 215 221 226 229 236 232 241 242 238 240 241 232 225 227 221 157 145 179 162 153 133 122 124 124 107
288 287 292 295 286 271 272 270 273 262 247 240 228 216 208 204 203 203 202 205 209 213 214 211 214 214 219 221 218 215 214 218 218 215 193 194 200 202 206 217 221 220 222 238 243 242 231 219 206 199 205 202 202 200 192 180 172 187 199 208 213 219 221 218 221 225 231 234 237 238 239 236 208 161 197 188 197 186 182 171 161 162 151 148 136
285 284 286 284 282 282 276 276 273 266 255 239 227 216 205 201 202 203 201 205 207 213 211 210 211 211 218 217 214 212 218 218 217 214 205 194 199 189 196 203 202 199 211 221 225 229 228 195 178 183 179 161 164 155 170 171 183 182 196 203 214 218 223 229 234 235 238 236 242 242 246 208 204 216 197 193 199 188 182 176 163 159 165 151 152
287 286 286 286 282 278 275 278 278 272 259 239 228 214 201 199 205 207 208 203 205 208 208 209 208 211 212 211 206 213 217 220 221 209 202 195 190 190 190 199 194 199 211 210 210 219 209 217 223 197 186 188 174 180 173 171 181 193 199 207 214 213 211 199 217 225 226 226 230 228 234 218 224 205 196 193 197 183 175 166 169 162 178 185 187
290 285 285 283 283 282 279 280 282 282 271 250 231 228 220 207 200 202 208 211 210 207 200 206 206 208 213 213 206 207 214 217 217 193 195 193 193 192 195 189 189 197 203 190 186 193 199 212 216 214 209 195 197 191 185 184 186 198 211 213 213 213 208 209 214 221 221 222 225 226 230 219 223 197 190 193 176 171 185 177 177 175 178 195 192
279 280 282 279 275 277 278 279 280 277 267 249 230 219 217 238 244 245 252 236 213 211 209 214 211 208 205 214 214 219 226 231 206 182 195 195 192 194 193 189 188 197 161 125 174 198 205 211 218 216 213 206 207 202 185 184 193 198 208 207 212 212 209 206 213 212 214 212 211 216 219 215 217 194 188 183 177 179 184 203 181 183 191 179 175
270 272 271 270 272 269 265 267 272 273 271 250 229 215 213 212 226 255 271 252 233 216 217 219 218 216 214 212 209 221 227 225 201 188 188 188 190 193 194 189 190 178 175 173 186 204 206 212 219 216 208 207 211 196 182 186 191 197 193 203 225 226 213 213 209 210 213 208 213 216 214 212 209 197 191 181 178 177 182 188 186 184 189 187 192
265 261 255 258 262 269 271 270 269 271 272 254 230 217 208 209 209 219 251 350 318 221 215 216 216 217 215 214 210 208 206 202 202 193 186 188 190 193 192 189 185 177 154 172 206 205 206 211 219 218 206 209 199 182 183 185 182 189 196 208 225 234 217 183 174 195 204 210 203 208 207 211 206 193 188 178 173 179 182 190 190 191 180 186 193
260 251 243 245 254 259 260 258 262 267 266 258 236 214 213 208 210 208 201 211 262 305 299 236 220 219 225 218 215 221 217 196 194 196 193 190 190 192 181 172 158 168 176 194 196 212 209 212 215 215 200 194 188 180 174 170 178 191 205 215 224 234 210 174 181 189 193 184 187 200 199 205 199 189 174 175 185 179 184 186 180 179 195 190 185
276 282 288 287 273 276 268 260 256 260 264 255 244 226 216 211 208 206 202 202 207 211 215 224 230 208 213 220 226 225 225 222 203 198 196 194 181 150 122 116 131 200 252 247 214 214 214 208 212 204 194 193 191 180 182 182 186 194 204 212 224 235 223 181 209 202 194 194 198 198 188 191 185 175 177 181 168 173 178 177 188 189 199 208 186
277 279 284 295 299 293 283 272 251 248 255 255 245 235 223 208 199 203 206 208 213 215 226 213 197 204 226 254 247 218 216 212 223 225 218 179 151 139 155 188 190 201 204 208 210 213 213 214 207 206 196 199 187 191 190 188 193 197 202 204 218 231 228 203 205 202 196 189 197 196 192 200 193 185 178 170 176 179 184 189 198 184 188 199 185
279 278 289 298 304 302 300 293 269 246 246 257 257 243 232 224 216 206 203 207 212 216 216 183 121 185 149 177 146 136 149 176 182 178 177 173 171 171 196 191 202 200 203 202 201 209 212 220 211 204 197 196 192 187 186 191 193 196 196 203 213 228 233 225 198 183 184 187 186 188 186 195 188 186 177 178 183 189 192 184 187 191 195 188 177
278 283 293 295 290 283 289 286 281 256 244 241 244 246 236 217 206 199 202 212 217 210 202 186 192 194 204 208 163 167 112 102 98 85 93 115 154 212 218 217 207 203 203 196 191 196 209 214 204 204 201 186 176 179 186 193 191 193 197 206 229 234 246 243 207 186 189 195 200 194 187 191 188 183 184 187 187 187 186 179 181 185 194 185 177
285 300 301 311 306 296 288 292 284 269 241 232 233 237 237 222 209 205 207 213 216 211 203 193 197 205 205 157 140 136 128 156 185 201 190 190 192 203 213 216 214 214 200 186 187 193 206 208 202 200 185 167 177 186 188 192 190 182 147 163 215 224 233 228 215 194 195 199 194 171 169 177 171 170 175 180 183 180 184 182 184 183 184 188 193
310 317 313 322 324 313 295 292 296 274 249 231 233 228 234 228 220 212 207 206 211 209 206 205 207 212 189 157 162 160 190 201 205 204 198 196 204 210 212 218 215 210 195 185 187 193 194 203 194 191 182 179 186 193 192 192 191 188 180 200 203 207 215 211 194 191 192 181 167 163 166 169 166 165 175 187 186 180 177 182 187 188 189 189 192
302 326 336 329 330 321 319 325 320 315 306 269 240 228 229 230 227 223 216 213 211 212 214 214 216 214 185 188 181 183 198 210 208 208 199 198 202 204 210 216 211 205 195 182 178 179 188 190 187 182 174 186 195 195 199 199 196 176 183 208 208 198 196 196 189 185 168 157 164 171 174 164 161 161 174 179 166 168 178 177 177 183 184 187 182
319 337 341 340 347 351 343 335 325 315 306 307 291 252 237 234 234 230 226 221 218 217 216 220 220 179 165 177 186 196 208 328 90 161 156 139 158 191 5 30 27 38 65 68 111 138 152 152 150 157 171 181 192 199 198 203 196 183 185 196 194 188 179 170 159 151 153 156 142 138 138 141 143 142 143 145 146 145 140 151 157 161 163 162 158
344 2 358 3 10 4 354 337 332 333 336 331 311 312 282 248 231 230 232 234 236 229 231 218 153 102 149 175 188 190 179 87 87 84 76 65 60 58 58 57 57 60 67 64 54 64 77 77 64 44 39 34 24 19 21 70 107 133 148 159 160 156 158 157 143 145 149 143 142 140 138 137 132 133 136 136 130 124 124 122 117 113 117 118 120
8 19 18 18 13 6 1 352 353 354 347 341 335 328 325 302 259 231 225 227 228 222 210 184 162 143 126 137 150 147 109 99 94 89 84 77 73 69 63 57 59 61 61 55 48 50 66 74 71 60 52 42 34 42 46 35 31 53 107 135 139 128 122 83 73 76 100 124 134 134 134 131 129 125 122 122 120 117 111 107 105 106 106 103 104
13 28 30 23 21 13 1 355 3 360 7 10 9 356 348 339 316 275 237 222 223 211 179 148 130 129 128 130 128 108 86 80 79 79 77 79 79 70 68 66 65 67 65 62 55 53 56 63 70 73 65 50 38 36 40 43 47 43 29 27 59 85 88 93 95 96 110 126 126 127 126 125 125 120 116 115 117 115 111 113 117 112 99 94 94
25 36 40 36 27 21 11 0 2 6 14 19 15 11 4 358 354 337 311 312 33 53 54 52 48 55 76 87 84 80 80 80 79 83 81 80 84 85 83 82 80 79 75 72 69 65 63 61 63 65 72 72 68 59 53 52 57 59 56 50 40 25 17 17 20 48 77 97 115 119 117 111 112 118 119 115 109 104 104 98 88 86 94 94 89
34 42 47 42 36 30 26 12 8 15 17 21 25 21 19 16 13 14 20 42 64 72 74 74 74 71 64 61 66 74 81 82 81 81 86 92 96 97 98 96 93 89 85 82 78 73 68 66 65 61 57 59 67 63 59 57 57 56 62 61 52 37 25 24 25 42 57 63 85 86 78 74 74 70 79 79 82 83 86 83 88 88 84 83 86
40 45 47 45 41 38 33 25 27 28 25 26 29 30 26 26 26 25 20 38 65 74 81 83 82 83 84 80 77 79 80 84 84 82 81 76 77 81 90 97 98 98 94 86 81 79 75 68 58 57 60 55 58 60 55 54 50 48 45 47 58 80 72 65 63 57 54 57 59 73 81 83 78 76 73 78 80 85 84 85 84 85 87 90 87
40 46 49 47 47 41 37 37 36 35 32 26 24 34 33 36 32 26 19 31 53 58 70 82 83 82 82 82 82 83 83 82 85 85 84 83 79 74 71 75 80 85 89 87 84 81 77 77 77 60 37 50 61 61 59 64 70 67 62 53 52 62 67 73 77 74 71 68 69 71 73 73 73 71 71 73 74 75 81 80 80 84 82 76 77
44 46 50 51 49 46 38 37 41 44 41 42 44 37 34 42 45 37 25 18 29 56 71 75 82 84 88 90 90 90 89 90 90 88 87 88 86 85 79 72 73 73 75 80 79 77 77 75 75 77 65 47 51 51 47 51 59 68 77 82 75 72 74 72 71 74 77 76 74 76 80 82 80 79 76 81 86 85 82 80 80 76 76 74 68
51 51 54 53 48 41 44 42 42 43 43 44 49 52 41 41 50 51 41 27 27 30 50 68 75 74 74 78 82 85 86 87 87 87 85 83 83 81 80 78 75 73 71 71 72 73 75 74 70 66 64 59 52 44 36 32 45 67 76 77 75 71 68 70 69 67 73 79 81 78 76 76 76 72 66 63 68 72 71 69 61 61 60 62 61